Temp
26 25 25 25 25 26 26 26 26 26 26 26 26 26 25 25 25 29 29 28 29 27 27 29 28 29 30 29 30 30 29 29 29 29 29 29 29 29 29 28 26 24 25 26 26 25 25 24 23 23 23 22 22 21 21 21 21 21 21 20 20 20 19 19 20 20 20 21 20 20 20 20 20 20 19 19 19 19 18 18 18 18 18 18 17 17
25 24 25 27 26 25 25 25 25 25 26 26 26 25 25 25 26 29 29 27 28 26 26 29 29 28 29 29 29 29 28 28 28 29 28 29 29 29 29 29 27 25 25 26 25 25 25 24 23 23 22 22 22 21 21 21 21 21 21 21 20 20 20 20 20 20 21 21 21 21 21 21 20 20 20 19 19 18 17 17 17 17 17 17 17 17
24 24 26 27 26 25 25 25 25 25 25 25 26 25 24 25 27 27 27 27 28 26 26 29 28 27 28 29 29 29 28 28 29 29 29 28 29 29 29 29 28 26 26 25 25 25 25 24 23 23 22 22 22 22 21 21 21 21 21 21 20 20 20 20 20 20 21 20 21 21 21 21 20 20 19 19 18 18 18 17 17 17 17 17 17 17
23 25 27 26 25 25 25 25 25 25 25 25 25 24 23 26 26 24 25 27 27 26 26 27 27 27 28 28 29 29 28 29 29 29 29 29 29 29 29 29 28 27 26 25 24 25 25 25 23 23 22 22 22 22 21 21 21 21 21 21 20 20 20 20 20 20 20 20 20 20 20 20 20 19 18 18 18 18 18 17 17 17 17 17 18 18
24 25 26 25 25 25 24 25 25 24 24 25 26 24 24 26 25 24 25 26 26 26 26 26 24 24 27 28 28 29 28 28 28 28 28 28 28 28 29 28 28 28 27 25 24 24 25 25 24 23 23 22 22 22 22 21 21 21 21 21 20 20 20 20 20 20 19 19 19 19 19 19 19 19 18 19 18 18 18 18 17 17 17 17 17 18
26 25 26 25 25 25 25 25 25 24 24 24 26 26 26 26 26 26 26 25 23 23 25 25 21 22 26 27 28 29 28 28 28 28 27 28 28 28 28 27 27 28 27 25 25 24 25 25 24 23 23 22 22 22 22 21 21 21 21 21 21 20 20 20 19 19 19 19 19 19 19 19 19 19 19 19 19 18 18 18 17 17 17 17 17 17
25 25 25 25 25 25 25 24 26 25 23 23 25 27 26 26 26 25 25 24 21 22 25 26 22 21 24 26 28 28 27 27 28 28 28 28 28 28 28 27 27 27 27 26 25 25 25 25 25 24 23 23 22 22 22 21 21 21 21 21 21 20 20 20 19 19 19 19 19 19 20 20 20 20 20 19 19 19 18 18 17 17 17 17 17 17
26 25 25 25 24 25 24 24 26 26 23 22 25 26 26 26 26 25 25 23 23 24 24 25 24 21 21 24 28 28 27 27 27 27 28 28 28 28 28 28 28 28 27 26 26 25 25 25 25 24 23 23 23 22 22 21 21 21 21 21 21 21 20 20 19 19 19 19 19 19 20 20 20 20 19 19 19 18 18 17 17 17 17 17 17 17
25 24 24 24 24 24 25 26 26 26 24 24 25 26 26 26 26 26 25 23 24 23 21 23 24 22 21 24 27 27 26 26 27 27 27 28 28 28 28 28 28 28 27 27 26 26 26 26 25 25 24 23 23 22 22 21 21 21 21 21 21 21 20 20 19 19 19 19 19 19 20 20 20 20 19 19 19 18 18 17 17 17 17 17 17 17
25 25 25 25 24 25 26 26 26 26 25 25 26 26 26 26 26 25 24 23 23 22 20 22 23 21 21 23 25 25 25 26 27 27 27 28 28 28 28 27 27 27 27 27 27 26 26 26 26 25 24 23 23 22 22 21 21 21 21 21 21 21 21 20 19 19 19 19 19 20 20 20 20 20 20 19 19 18 18 18 17 18 17 17 17 17
26 26 26 25 25 26 27 26 26 26 26 26 25 25 25 25 25 25 24 23 21 21 21 22 23 22 21 22 24 25 24 26 27 26 26 27 28 27 27 27 27 27 27 27 27 26 26 26 25 25 25 24 23 22 22 21 21 21 21 21 21 21 21 20 19 19 19 19 19 20 20 20 20 20 20 19 19 18 18 18 18 18 18 17 17 17
26 25 25 26 26 26 26 25 26 26 26 25 25 25 23 23 23 23 22 22 21 20 21 23 23 22 20 22 25 26 25 26 27 26 26 27 27 27 26 26 27 27 27 27 27 26 25 24 24 25 24 24 23 22 22 21 21 21 21 20 21 21 21 20 19 19 19 19 19 20 20 20 20 19 20 19 19 19 18 18 18 18 18 17 17 17
25 25 26 26 26 26 25 25 25 26 25 25 24 23 21 21 21 21 21 21 20 21 22 23 23 22 21 23 26 26 26 26 26 26 26 26 26 25 26 26 26 26 26 26 26 25 24 23 24 24 24 24 23 22 22 21 21 21 21 20 21 21 21 20 19 19 19 19 19 20 20 20 20 19 19 19 19 19 19 19 18 18 18 18 17 17
23 25 26 26 25 26 25 24 23 24 24 24 23 22 20 20 20 20 20 21 21 21 22 23 22 21 21 24 27 26 26 26 26 26 26 25 25 25 25 26 26 26 26 25 25 24 23 23 23 23 23 23 23 22 21 21 21 21 20 20 21 21 21 20 19 19 19 19 19 19 20 20 20 19 19 19 19 19 19 19 19 19 19 18 18 17
21 22 25 25 25 25 26 25 25 25 24 25 25 24 21 21 20 20 20 20 21 21 21 22 21 21 21 23 26 26 25 26 26 25 25 25 25 25 25 26 25 25 25 24 24 23 22 22 22 22 22 22 22 22 21 21 20 20 20 21 21 21 21 20 20 19 19 19 19 19 19 20 20 19 19 20 20 19 19 19 19 19 19 19 18 18
21 21 25 26 25 25 25 26 27 25 24 25 26 24 22 22 22 21 21 21 20 20 21 21 21 22 23 24 25 26 25 26 25 25 25 24 25 25 24 24 24 24 24 23 23 22 21 21 21 21 22 22 22 21 21 21 20 20 20 20 21 21 21 20 20 19 19 19 19 19 19 19 20 20 20 20 20 19 19 19 19 19 19 19 18 18
21 21 25 25 25 26 26 26 26 25 23 24 24 22 23 25 24 21 20 21 21 20 21 21 21 23 24 24 25 25 25 25 25 25 25 24 24 24 24 23 23 23 23 22 22 21 21 21 21 21 21 21 21 21 21 20 20 20 20 20 21 21 21 20 20 20 19 19 19 19 19 19 19 19 20 20 20 20 19 19 19 19 19 19 18 18
22 21 24 25 24 25 26 25 26 26 25 23 22 23 25 26 24 22 20 20 20 20 21 21 21 21 21 22 24 25 25 25 25 25 25 24 24 23 23 23 22 22 22 22 21 21 21 21 21 21 21 21 21 20 20 20 20 20 20 20 20 21 21 20 20 19 19 19 19 19 19 19 19 19 19 20 20 20 19 19 19 19 19 18 18 18
23 21 23 26 25 25 26 25 24 25 26 25 24 25 24 22 21 22 20 20 20 20 20 21 21 21 21 21 23 23 24 24 24 25 24 24 24 23 22 22 22 21 21 21 21 20 20 20 20 20 20 20 20 20 20 20 20 19 19 20 20 20 20 20 20 19 19 19 19 19 19 19 19 19 19 19 19 19 19 19 19 19 19 18 18 18
23 21 21 25 26 25 25 24 22 23 25 25 25 25 24 22 22 21 21 21 20 20 20 20 20 21 22 23 24 23 24 24 24 24 24 24 23 22 22 22 21 21 21 21 21 20 20 20 19 19 19 19 19 19 19 19 19 19 19 19 19 20 20 20 19 19 19 19 19 19 19 19 19 19 19 19 19 19 19 19 19 19 19 18 18 18
23 21 20 23 25 24 23 23 23 23 24 24 23 23 23 23 23 22 22 21 21 20 20 20 20 21 22 25 25 24 24 25 24 24 24 23 22 22 21 21 21 20 20 20 20 20 20 20 20 19 19 19 18 18 18 18 18 18 18 18 19 19 19 19 18 18 18 18 18 18 18 18 18 19 19 19 19 19 19 19 19 19 19 19 18 18
22 21 20 21 22 22 22 24 25 24 24 23 23 22 22 22 22 21 21 21 21 21 20 20 20 20 22 24 25 24 25 25 24 24 23 23 22 21 21 20 20 20 20 20 20 20 20 20 20 20 19 19 19 18 18 17 17 18 17 17 17 17 17 17 17 17 17 17 17 18 18 18 18 18 18 18 18 18 18 18 18 18 18 18 18 18
21 21 20 20 21 22 24 25 24 24 24 24 23 23 23 23 21 20 20 21 21 21 21 21 20 20 21 23 24 24 25 24 24 24 23 22 21 21 20 20 20 20 20 20 20 20 20 21 20 20 19 19 19 18 18 18 18 18 18 18 17 17 17 17 17 17 16 16 16 17 17 17 17 17 17 18 18 18 18 18 18 18 18 18 18 18
20 20 20 20 21 23 24 25 24 24 24 23 23 23 23 23 22 22 21 21 20 20 20 20 20 20 21 23 24 24 24 24 24 23 23 22 21 21 20 20 20 20 20 20 20 20 21 21 21 20 20 19 19 18 18 18 18 18 18 18 17 17 18 18 17 17 17 17 16 16 16 16 16 16 16 17 17 17 17 18 18 18 18 18 18 18
19 20 20 19 20 21 21 23 23 23 22 22 22 23 23 23 23 22 22 21 20 20 20 20 20 20 20 22 23 23 23 23 23 23 23 21 21 21 21 20 20 20 20 20 20 20 20 20 21 21 20 20 20 19 19 18 18 18 17 17 17 17 17 17 17 17 17 17 17 17 16 16 16 16 16 16 16 16 16 17 17 17 18 18 17 17
20 20 20 19 18 19 19 20 21 21 21 22 22 23 23 22 21 21 21 20 19 20 20 20 20 20 21 22 22 22 23 23 23 23 22 22 21 21 21 20 20 20 20 20 19 19 19 19 20 20 20 20 20 19 19 19 18 18 17 17 17 17 17 17 17 17 17 17 17 16 16 15 15 16 16 16 16 16 16 16 16 16 17 17 17 17
19 19 20 19 19 19 20 21 22 21 21 21 21 22 22 22 21 20 20 19 19 20 20 20 21 21 21 22 22 22 22 22 22 22 22 22 21 21 21 20 20 20 20 19 19 19 19 18 19 19 19 19 19 19 19 19 18 18 18 18 17 17 17 17 17 17 17 17 17 16 16 15 15 15 15 16 16 15 15 15 15 16 16 16 17 17
18 18 19 19 19 20 20 21 22 21 21 21 21 21 21 21 21 20 19 19 19 19 19 20 21 20 21 22 22 21 22 22 22 21 21 22 21 21 20 20 20 20 20 20 19 19 18 18 18 18 18 18 18 18 18 18 18 18 17 17 17 17 16 16 17 17 17 17 17 17 17 17 16 16 16 16 15 15 14 15 15 15 14 15 16 16
18 18 19 19 19 20 20 21 21 21 21 21 21 20 20 20 20 20 19 20 19 18 18 20 20 20 20 21 22 22 22 21 21 21 21 21 21 20 20 20 20 20 20 19 19 18 18 17 17 18 18 18 18 18 18 18 18 17 17 17 17 16 16 16 16 17 17 17 17 17 17 17 17 17 17 17 17 16 16 15 15 14 13 14 15 15
17 17 18 19 18 19 20 20 20 20 20 20 20 20 20 20 20 19 19 20 19 19 19 19 19 19 20 21 21 22 21 21 21 21 21 21 21 20 20 20 20 20 20 19 19 18 18 17 17 17 17 17 17 17 17 17 17 17 16 16 16 16 16 16 16 16 17 17 17 17 17 17 17 17 17 17 17 17 17 17 16 15 15 15 15 15
17 16 17 18 17 18 19 19 20 19 19 19 19 20 20 19 19 19 19 19 19 18 19 19 18 18 19 20 20 21 21 21 21 21 21 21 20 20 20 20 20 20 20 19 18 18 18 17 17 17 17 17 17 16 16 16 16 16 16 16 16 16 16 16 16 16 16 16 17 17 17 17 17 17 17 17 17 17 18 17 17 17 16 16 16 16
16 16 17 17 16 16 18 18 19 19 18 18 18 19 19 18 18 19 19 19 19 18 18 17 16 17 19 20 20 21 21 21 21 21 21 20 20 20 20 20 20 19 19 19 18 18 18 17 17 17 17 17 17 17 16 16 16 16 16 15 15 15 15 15 15 16 16 16 16 17 17 17 17 17 17 17 17 17 17 17 18 17 17 17 16 16
17 16 16 16 15 16 17 18 18 17 16 16 17 18 18 18 18 18 18 19 19 18 17 16 17 18 19 20 20 19 20 20 20 21 20 20 20 20 19 20 19 19 19 18 18 18 17 17 17 16 16 16 17 17 16 16 16 16 15 15 15 15 15 15 16 16 16 16 16 16 17 16 17 17 17 17 17 17 17 17 17 17 17 17 16 16
16 16 16 16 15 15 16 17 17 15 13 15 17 18 18 18 18 18 18 18 18 18 18 18 18 18 18 19 18 18 19 20 20 20 20 19 19 19 19 19 19 18 18 18 17 17 17 17 16 16 16 16 16 16 15 15 15 15 15 15 15 15 15 16 16 16 16 16 16 16 16 16 16 16 16 16 16 16 16 16 17 17 17 17 17 16
16 15 15 15 15 15 16 16 14 13 14 16 18 18 17 17 17 17 17 17 18 18 17 17 17 17 18 18 18 18 18 19 19 19 19 19 19 19 19 19 18 18 17 17 17 16 16 16 16 15 15 15 15 15 15 16 15 15 15 15 15 15 15 16 16 16 16 16 16 16 16 16 16 16 16 16 16 16 16 16 16 16 16 16 16 16
16 15 15 15 15 15 15 14 13 14 16 17 17 17 16 16 16 16 15 16 17 17 16 16 16 17 17 17 17 17 17 18 18 18 18 19 19 19 18 18 18 17 17 17 16 16 16 15 15 15 15 15 15 15 16 16 15 15 15 15 15 15 15 15 16 16 16 16 16 16 16 16 16 16 15 16 16 16 16 16 16 16 16 16 16 16
16 15 15 14 14 15 14 14 14 15 16 16 16 16 16 15 15 14 13 14 16 16 15 16 16 16 17 17 16 17 16 16 17 17 17 17 17 18 18 18 17 17 16 16 16 16 15 15 15 15 14 14 15 15 15 15 15 15 15 15 15 15 15 15 16 16 16 16 16 16 16 16 15 15 15 15 15 15 15 15 15 15 15 15 16 16
16 16 15 14 14 14 14 14 14 13 14 15 15 14 14 14 14 14 13 13 15 15 15 15 15 16 16 16 16 16 15 15 15 16 16 16 16 16 16 17 17 17 17 16 16 16 16 15 15 15 15 14 15 14 14 15 14 14 15 15 15 15 15 15 15 16 16 16 16 16 16 15 15 15 15 15 15 15 15 15 15 15 15 15 15 15
16 16 15 14 13 14 13 13 12 13 13 14 13 13 14 14 14 13 12 13 14 14 14 14 15 15 15 14 15 15 14 14 13 13 14 15 16 16 15 16 17 17 16 16 16 16 15 15 14 14 14 14 14 14 14 14 14 14 14 14 14 14 15 15 15 15 15 15 15 15 15 15 15 15 15 15 14 14 14 14 14 14 14 15 15 15
15 15 14 13 13 13 13 12 13 13 13 13 13 13 14 14 13 12 11 12 13 13 13 13 13 14 14 14 14 14 13 13 13 12 12 14 15 16 15 16 16 16 16 16 16 15 15 14 14 15 15 14 14 14 14 14 14 14 14 14 14 14 14 14 14 14 15 15 15 15 15 15 15 14 14 14 14 14 14 14 14 14 14 14 14 15
13 13 13 13 13 13 12 12 13 13 12 12 13 13 13 13 12 11 11 11 12 13 13 13 13 13 13 13 13 13 14 14 14 13 14 14 15 15 16 15 15 15 15 16 15 14 14 14 14 14 14 14 14 14 14 14 14 14 14 14 14 14 14 14 14 14 14 14 14 14 14 15 14 14 14 14 14 14 13 13 13 13 14 14 14 14
12 12 12 12 12 12 12 11 12 12 11 11 12 13 13 12 11 11 11 12 12 12 13 13 13 13 13 13 13 13 13 14 14 14 14 14 14 14 15 15 15 15 15 15 15 14 14 14 14 14 14 14 14 14 14 14 14 14 14 14 14 14 14 14 13 14 14 14 14 14 14 14 14 14 13 13 13 13 13 13 13 13 13 13 13 13
12 11 11 12 12 12 11 11 11 10 10 11 12 12 12 11 11 11 12 12 13 13 13 13 13 13 13 12 13 13 13 13 13 13 14 14 14 14 15 15 15 15 14 14 14 14 14 14 14 14 14 14 14 14 14 14 14 14 13 13 14 13 13 13 13 13 13 13 13 13 13 13 13 13 13 13 13 13 12 12 12 12 13 12 11 11
12 11 11 11 12 11 10 11 10 10 11 12 12 11 11 11 11 12 12 12 12 13 12 12 12 12 12 12 12 12 12 12 13 13 13 13 13 14 14 14 14 14 14 14 14 14 14 14 14 14 14 14 14 14 14 14 13 13 13 13 13 13 13 13 13 13 13 13 13 13 13 13 13 13 13 13 13 12 12 12 12 12 12 11 10 10
12 11 11 11 11 11 11 11 11 11 12 13 12 11 11 12 12 12 12 11 12 12 12 12 12 12 12 12 12 12 12 12 12 12 13 13 13 13 13 14 14 14 14 14 14 14 14 14 14 14 14 14 14 14 13 13 13 13 13 13 13 13 13 13 13 13 13 13 13 12 12 12 12 13 13 13 13 12 12 12 12 11 10 9 9 9
12 12 12 10 10 11 11 12 13 12 12 12 12 12 12 12 12 12 12 12 12 12 12 12 12 12 12 12 12 12 12 12 12 12 12 13 13 13 14 14 14 14 14 14 14 14 14 14 14 14 14 13 13 13 13 13 13 13 13 13 13 12 12 12 12 12 12 12 12 12 12 12 12 12 12 12 12 12 11 10 10 10 9 8 8 7
11 11 10 10 10 10 10 11 12 12 11 11 12 12 12 12 12 12 12 12 12 12 11 12 11 11 11 11 12 11 12 12 12 12 12 13 13 13 14 14 14 14 14 14 14 13 13 13 13 13 13 13 13 13 12 12 12 12 12 12 12 12 12 12 11 11 11 11 11 11 11 11 11 11 11 11 11 10 9 9 9 8 8 7 7 7
10 9 9 10 10 9 9 11 11 11 11 11 11 11 12 12 12 12 11 11 11 11 11 11 11 11 11 11 11 11 11 12 12 12 12 12 12 13 14 14 14 14 13 13 13 13 13 12 12 12 12 12 12 12 12 12 12 12 12 11 11 11 11 11 10 10 10 11 11 11 11 11 11 10 10 10 9 9 8 7 7 7 6 6 6 6
10 9 9 10 9 9 10 10 10 10 10 11 11 11 11 11 11 11 11 10 10 10 10 11 11 11 11 11 11 11 11 11 12 12 12 12 12 13 13 14 13 13 13 13 13 12 12 12 12 12 12 12 12 12 12 12 12 11 11 11 10 10 10 10 9 9 9 9 10 10 10 10 9 9 9 8 7 6 6 6 5 5 6 6 6 6
10 9 9 9 8 8 9 10 9 8 8 10 10 10 10 10 10 10 9 9 10 10 10 10 10 11 10 10 10 10 10 10 11 11 12 12 12 13 13 13 12 12 12 12 12 11 11 12 12 12 11 11 11 11 11 11 11 11 10 10 9 9 9 8 8 8 8 8 8 8 8 8 8 7 7 6 5 4 5 5 5 5 5 6 6 7
9 8 8 8 7 8 9 9 9 9 8 9 10 9 9 10 9 9 9 9 9 9 9 9 9 9 9 9 10 9 9 9 10 11 11 11 12 12 12 12 12 12 12 12 11 12 12 12 11 11 11 11 11 11 11 11 11 10 9 8 8 7 7 7 7 6 6 5 5 6 6 6 6 5 5 4 4 4 4 4 5 5 6 6 6 7
Height
747 755 755 749 745 743 742 742 745 745 743 741 739 738 736 734 732 723 728 734 729 737 737 728 733 732 727 728 728 728 732 735 736 736 737 737 735 736 737 740 748 755 755 754 754 755 758 761 764 767 769 772 775 777 779 781 783 785 787 789 792 793 795 797 798 799 800 800 801 802 803 803 804 805 806 806 806 807 807 807 807 807 807 807 806 807
752 760 752 740 742 745 745 746 747 748 747 746 744 742 738 735 731 722 728 735 733 742 740 727 732 736 731 730 729 730 735 737 736 736 737 737 736 736 735 736 742 750 753 755 756 755 757 760 763 766 768 771 773 776 778 780 782 784 786 789 791 793 795 796 797 798 799 800 800 801 802 803 804 805 806 807 807 808 808 808 808 808 808 808 808 808
757 755 743 738 743 746 748 748 749 751 750 749 745 744 742 734 730 731 736 736 735 744 742 730 735 739 733 728 729 732 734 734 732 732 734 735 736 736 736 735 738 745 751 754 756 755 755 758 762 765 767 770 772 774 777 779 781 783 786 788 790 792 794 796 797 798 799 800 800 801 802 803 804 805 807 807 808 809 809 809 809 809 809 809 809 809
755 747 737 740 746 748 752 751 752 753 750 749 745 745 743 734 734 741 743 740 738 742 742 736 737 739 735 730 728 730 731 730 730 730 730 732 734 735 735 735 737 741 747 752 754 754 754 757 760 763 765 768 771 773 775 778 780 782 784 786 789 791 793 795 797 798 799 800 801 802 803 803 805 806 808 808 809 809 810 810 810 810 810 810 810 810
747 742 739 743 748 750 753 752 753 754 750 745 743 743 741 735 738 742 743 745 743 743 743 743 748 745 737 734 730 727 729 730 730 732 733 733 734 735 735 736 737 738 743 750 753 754 754 754 757 760 763 766 769 771 773 776 779 781 783 785 787 790 792 794 796 798 799 800 802 802 803 805 805 807 808 808 809 810 810 811 811 811 811 811 811 811
742 743 741 745 749 749 752 752 750 752 750 743 740 740 739 738 740 741 743 749 754 752 743 745 763 757 733 729 730 726 730 733 732 733 735 735 735 736 739 740 741 740 742 747 752 755 754 753 756 758 761 764 767 769 772 774 777 780 782 784 787 788 791 793 795 797 799 800 802 802 803 804 805 806 807 808 809 810 810 811 812 812 812 812 812 812
742 745 742 747 751 749 752 750 743 746 751 748 740 736 739 740 742 744 743 750 758 754 740 742 764 761 737 729 729 727 733 734 732 733 733 732 733 735 737 739 741 742 744 748 751 753 752 751 754 757 759 762 764 768 771 773 776 778 781 783 785 787 789 792 794 796 798 800 801 802 802 803 804 805 806 808 809 810 811 812 812 813 813 813 813 813
741 747 748 749 752 751 751 748 740 741 750 751 741 737 739 740 742 744 744 749 749 744 743 743 750 758 749 735 728 729 734 734 733 736 733 730 731 733 733 735 737 739 742 746 749 748 748 750 752 755 758 760 763 766 769 771 774 777 779 782 784 786 788 790 793 795 797 799 800 801 802 803 804 805 807 808 809 810 812 812 813 813 814 814 814 814
741 748 751 750 753 751 745 739 736 740 747 747 741 739 739 739 742 742 744 748 745 748 758 746 740 759 757 735 728 733 737 737 734 735 735 732 730 731 733 735 736 738 740 742 744 745 745 748 750 753 756 759 762 764 767 770 772 775 778 780 783 785 787 789 791 794 796 798 799 800 801 802 803 805 807 808 810 811 812 813 813 814 814 815 815 815
743 744 744 745 750 746 738 735 735 740 744 740 739 740 738 739 741 742 746 747 748 760 768 749 741 761 760 738 732 737 740 738 733 734 735 732 731 732 735 738 739 739 740 741 742 743 744 746 748 750 754 757 760 762 765 768 770 773 776 778 781 783 785 788 790 792 795 797 799 800 801 802 803 804 806 808 809 811 812 813 813 814 814 815 815 816
739 740 740 742 744 738 734 736 737 739 740 739 742 742 742 742 741 744 746 746 760 770 761 746 740 754 762 745 731 736 741 735 732 736 737 733 733 735 737 740 740 739 740 740 740 742 744 746 748 749 751 754 758 761 763 766 768 771 773 776 779 782 784 786 788 791 794 796 798 799 800 801 803 804 805 807 808 810 811 812 813 814 814 815 816 816
737 742 742 738 737 735 737 739 737 737 737 741 744 743 750 753 748 752 751 753 773 774 751 738 735 748 764 749 729 733 738 733 733 737 738 737 737 739 741 740 739 740 740 739 740 742 745 747 748 749 750 752 756 760 762 764 766 768 771 774 777 780 783 785 787 790 792 795 796 798 799 801 802 804 805 806 808 809 810 811 812 813 814 815 816 816
742 739 735 734 734 735 741 742 738 737 739 742 743 749 763 767 765 771 768 764 772 764 744 736 740 752 757 739 727 733 734 733 736 735 737 740 741 743 743 741 740 740 740 740 741 744 746 748 748 748 749 752 755 759 761 763 765 767 769 772 775 778 781 783 785 788 790 793 795 797 798 800 802 803 804 805 807 808 809 810 811 812 813 814 815 816
749 738 729 733 736 734 738 742 743 744 743 744 744 755 769 773 780 785 774 767 765 755 743 740 749 759 751 733 726 731 733 734 736 737 739 742 745 746 743 741 741 741 741 742 743 745 747 748 748 749 750 752 755 758 761 763 764 765 768 770 773 776 779 782 784 787 789 791 794 796 798 799 801 802 804 805 806 807 808 809 810 811 812 813 814 815
756 749 735 735 738 736 736 736 738 739 741 740 735 744 758 761 773 779 770 767 764 755 749 751 759 761 754 742 730 729 734 735 736 738 741 743 744 744 743 742 743 744 745 746 746 749 750 750 751 752 753 754 756 758 761 763 764 765 767 769 772 775 777 780 783 785 788 790 793 795 797 798 800 801 803 804 804 806 807 808 809 810 811 812 813 814
756 751 734 732 734 734 737 731 729 737 743 738 729 738 751 748 752 763 762 760 763 765 759 756 757 745 740 741 732 730 735 734 737 739 740 744 744 744 746 746 747 748 749 749 750 752 752 753 754 755 755 756 757 759 761 763 764 765 767 768 771 774 776 779 782 784 787 789 792 794 796 798 799 800 801 802 803 804 806 807 808 809 810 811 812 813
759 750 732 734 735 730 734 731 729 738 744 739 738 745 742 732 739 756 762 755 762 775 765 752 751 740 736 740 731 732 738 735 739 740 740 745 745 747 750 749 751 752 752 753 753 754 755 755 756 757 757 758 759 761 762 763 765 766 767 768 770 773 776 779 781 784 786 788 790 792 795 797 798 799 800 801 803 803 805 806 807 808 809 810 811 812
756 755 736 733 738 731 730 734 731 731 735 741 746 743 734 732 737 749 763 764 767 775 762 749 752 748 748 749 736 733 739 739 739 739 741 746 746 749 752 752 754 754 754 755 755 756 757 757 758 758 759 760 760 761 763 764 765 766 767 768 770 773 775 778 781 783 786 787 789 791 793 795 797 799 800 801 802 803 804 805 806 807 808 809 810 810
750 761 745 728 735 733 729 738 740 730 728 735 737 732 737 753 754 750 763 772 774 777 766 753 751 746 747 747 742 742 740 739 740 739 743 746 747 751 753 754 756 756 757 757 757 759 760 760 762 761 761 762 762 763 763 765 766 767 768 769 770 773 775 778 780 783 785 787 789 791 792 794 796 797 799 800 801 802 803 805 805 806 807 807 808 809
746 762 756 732 729 735 733 740 747 739 729 730 733 731 735 747 751 750 756 760 766 773 770 762 756 749 741 732 734 742 739 736 740 741 743 746 748 752 754 755 757 758 759 759 760 761 761 763 765 765 766 766 765 765 765 766 767 767 769 770 771 773 775 778 780 782 785 786 788 790 792 794 795 797 798 799 801 802 803 804 805 805 806 807 808 808
747 759 762 744 732 740 743 740 741 740 735 735 739 740 739 739 741 746 748 746 753 764 767 768 764 751 737 727 728 737 736 734 738 741 744 748 751 754 755 757 759 760 761 761 762 763 763 764 765 766 768 768 768 769 768 769 769 768 769 770 772 774 776 779 781 782 785 786 788 789 791 794 795 796 797 798 800 801 802 803 804 805 805 806 807 807
752 756 761 755 745 745 741 731 731 734 735 737 739 739 741 742 744 754 757 746 744 753 758 763 764 751 738 732 730 732 731 733 736 741 746 750 753 756 757 758 760 761 763 763 763 764 764 765 766 767 768 768 769 770 769 771 771 770 771 772 774 776 777 780 782 782 784 786 787 788 789 792 794 795 796 796 798 799 801 802 803 803 804 804 805 806
755 758 761 759 750 742 733 728 733 736 734 736 738 736 739 743 746 759 765 754 749 751 749 751 758 755 744 735 732 732 732 734 737 741 747 752 755 757 758 759 760 761 763 764 764 765 765 766 767 768 769 770 771 771 771 771 772 771 771 773 775 777 778 780 782 783 784 785 786 787 787 789 791 794 795 795 796 797 799 801 801 802 803 803 803 804
760 764 766 761 749 737 730 727 729 732 737 742 741 737 739 742 742 748 752 752 756 757 753 757 762 759 749 737 733 736 736 738 741 743 748 753 755 757 758 759 761 762 763 764 765 765 766 766 767 768 769 771 772 773 773 773 774 774 774 775 777 777 778 780 782 783 783 783 785 787 787 788 789 792 793 793 793 794 796 798 799 799 800 801 801 801
764 764 764 766 762 753 745 739 735 736 741 745 743 739 738 738 741 745 746 752 761 758 755 763 762 755 751 741 736 740 740 741 743 743 747 753 755 757 758 759 761 763 764 765 766 766 767 767 768 768 769 770 771 773 774 775 776 776 777 778 779 780 781 782 782 782 782 782 784 786 787 788 788 789 790 791 791 791 793 795 796 796 796 797 798 798
765 763 762 769 773 769 762 752 746 745 745 744 742 738 738 742 748 754 756 761 765 756 752 758 754 748 749 745 741 743 742 742 744 744 746 750 753 755 757 759 761 762 764 765 766 768 768 769 770 770 771 771 772 773 774 775 777 778 780 781 781 782 783 783 783 782 782 783 784 785 786 787 788 788 788 789 789 789 789 792 793 792 792 793 794 795
766 765 763 765 766 762 756 748 741 744 748 748 746 742 742 746 750 756 763 765 761 755 753 750 746 747 748 744 745 746 745 744 746 747 748 750 753 755 757 759 760 761 764 765 766 769 770 771 772 772 773 774 774 774 775 776 778 779 780 781 782 783 783 783 783 783 783 784 784 785 786 787 788 787 786 786 787 788 788 789 790 790 789 790 791 792
770 769 764 763 761 756 751 747 743 745 749 748 748 749 747 745 747 755 763 763 760 763 760 745 742 750 748 741 743 745 746 747 747 749 751 751 754 757 757 759 760 761 764 765 767 769 770 772 774 774 775 775 776 777 777 777 779 780 781 782 783 784 784 784 784 783 784 784 785 785 786 786 787 786 785 784 785 787 787 786 788 788 788 789 789 789
771 771 764 761 761 755 751 749 746 747 748 747 747 751 752 750 751 756 758 756 759 767 763 750 748 753 750 744 743 742 744 747 747 748 750 752 756 758 758 760 760 761 763 765 768 769 771 773 775 776 777 777 777 778 778 778 779 780 782 782 783 784 784 785 785 784 785 785 785 786 785 785 785 784 784 784 784 784 784 784 785 786 787 788 787 787
770 771 764 762 762 757 752 750 748 750 752 750 749 750 752 753 754 755 754 753 756 759 756 754 757 755 748 746 745 742 743 746 746 747 749 751 755 757 758 759 760 761 763 765 768 770 771 773 775 776 778 778 779 779 779 780 780 781 782 783 783 784 784 785 785 785 785 785 785 785 785 785 784 784 784 783 783 783 782 782 783 783 784 785 785 786
772 774 766 765 768 764 757 753 752 753 755 754 751 749 749 752 754 754 754 753 755 757 754 755 760 757 750 747 747 745 744 745 747 748 748 750 753 755 757 758 759 760 762 765 769 770 771 773 775 776 778 779 780 780 781 782 782 782 783 783 783 784 784 785 785 785 785 785 785 785 784 784 784 784 783 783 782 782 782 782 781 781 782 783 783 784
773 776 769 769 773 768 761 758 756 755 756 756 755 752 752 755 756 754 753 752 755 759 761 763 765 760 751 746 745 744 742 743 745 746 747 749 750 753 756 757 757 760 763 767 770 771 771 773 775 777 778 779 779 779 780 781 782 782 783 783 783 784 784 785 785 785 785 784 784 784 783 783 783 783 782 782 782 781 781 781 781 780 781 781 782 782
771 775 773 773 775 769 762 759 758 763 770 766 757 754 755 756 755 754 753 752 753 756 762 764 759 753 748 745 746 747 745 745 744 744 746 748 749 752 755 755 756 759 763 767 771 773 773 773 774 777 778 779 779 779 780 781 781 782 783 783 783 783 783 784 784 784 784 783 783 783 782 782 782 782 782 781 781 781 781 781 780 780 780 780 780 781
770 775 775 774 776 772 765 761 763 774 779 768 754 752 755 755 754 754 754 753 752 752 754 753 750 749 749 749 751 752 749 746 746 747 748 750 751 754 755 755 757 761 765 769 772 774 776 775 776 778 778 779 779 780 781 781 781 782 782 782 782 782 782 782 782 782 782 782 782 781 781 781 781 781 781 781 781 780 780 780 780 779 779 779 779 779
773 777 777 775 776 773 766 768 777 779 771 760 753 754 757 758 757 758 757 755 753 753 755 755 753 753 753 753 754 754 750 747 749 751 751 751 752 754 755 756 759 763 767 771 774 777 779 778 778 778 778 779 779 780 780 780 780 781 781 781 781 782 782 782 781 781 781 781 780 780 780 780 779 779 779 779 779 779 779 779 779 779 778 778 777 777
772 777 776 774 774 772 769 773 777 769 757 754 756 757 760 762 762 763 764 759 755 757 760 760 757 755 755 757 759 759 756 753 752 752 753 752 751 753 755 756 760 765 768 772 775 778 780 780 779 778 779 779 779 779 779 779 780 780 780 781 781 781 781 781 780 780 780 779 779 778 778 778 778 778 778 778 778 777 778 778 777 777 777 776 776 775
767 773 776 776 773 771 772 770 766 763 759 757 759 759 762 764 765 770 774 766 759 761 763 762 760 758 757 758 759 760 760 759 757 756 757 757 756 756 757 758 762 767 771 773 776 778 780 781 780 778 779 779 779 779 779 779 780 780 780 780 780 780 779 779 778 778 777 777 777 776 776 776 776 776 776 776 776 776 776 776 775 775 775 775 774 773
764 768 773 776 774 771 773 771 768 770 767 762 763 765 767 769 769 775 779 772 763 764 765 764 763 760 760 762 762 762 764 765 763 762 761 761 762 763 764 764 765 769 771 773 775 777 778 779 779 778 778 778 778 779 779 779 779 779 779 779 779 778 778 777 776 776 775 775 775 774 774 774 774 774 774 774 774 774 774 774 774 773 773 773 772 771
763 766 769 774 774 772 775 776 774 773 768 766 770 771 771 771 771 775 779 772 766 768 770 769 766 764 765 768 767 767 769 769 770 771 769 765 765 768 770 769 767 770 772 773 775 776 777 779 779 778 777 777 777 777 778 778 778 778 777 777 777 777 776 775 775 774 774 773 773 772 772 772 772 772 772 772 771 771 771 771 771 771 771 771 770 770
768 769 771 774 775 773 774 774 770 768 769 773 774 773 773 773 775 782 785 776 770 774 776 775 774 772 771 771 770 771 772 772 774 777 776 772 770 770 771 772 772 773 774 774 775 776 778 778 778 776 775 776 776 776 776 776 776 776 776 775 775 775 774 774 773 773 772 771 771 770 770 769 769 769 769 769 769 769 769 769 769 769 769 769 769 768
773 774 775 776 775 772 774 775 769 766 774 779 776 774 777 778 780 785 785 779 777 778 777 777 778 777 775 774 773 772 772 771 773 775 775 774 773 772 772 773 774 774 774 774 775 777 778 777 775 775 774 774 774 774 774 774 774 774 773 773 773 772 772 772 771 770 770 769 769 768 767 767 767 767 767 767 767 767 767 767 767 767 767 767 767 767
778 779 779 779 777 773 774 778 773 772 781 784 778 775 778 781 782 783 782 781 782 780 777 777 778 777 777 777 776 775 773 773 773 773 773 773 773 773 774 774 774 775 775 775 775 776 775 774 773 773 773 772 772 772 772 772 772 771 771 771 771 770 770 769 769 768 768 767 766 766 765 765 765 764 764 765 765 765 765 765 766 766 765 766 766 767
781 784 781 777 777 777 777 780 780 781 786 786 782 780 782 784 783 782 781 781 780 779 779 779 778 778 779 778 778 777 776 775 775 774 774 774 772 772 773 773 773 774 775 774 774 773 772 771 771 770 770 770 770 770 769 770 769 769 769 768 768 768 768 767 767 766 765 765 764 763 763 762 762 762 762 762 763 763 763 763 764 764 764 765 765 766
782 787 784 779 779 782 782 781 783 786 786 784 784 786 787 787 785 784 784 782 780 780 780 779 778 779 780 780 779 778 777 777 776 775 774 774 773 773 772 772 772 772 772 772 771 771 770 770 768 768 768 767 767 767 767 767 767 766 766 766 765 766 765 764 764 763 763 762 761 761 761 760 759 759 759 759 760 761 761 761 762 762 763 764 765 766
781 783 786 786 785 785 783 780 780 782 780 780 783 786 786 787 786 785 785 784 783 783 781 781 781 780 780 781 780 778 777 776 775 774 774 773 773 773 772 771 770 769 768 768 768 768 768 766 765 765 765 765 765 765 765 765 765 764 763 763 763 763 762 762 761 760 760 759 759 758 758 757 757 757 756 757 757 758 758 759 759 760 761 763 764 766
780 781 785 789 789 785 782 778 777 778 779 780 783 784 784 785 783 782 782 781 780 781 781 780 781 780 780 780 779 777 777 775 773 773 772 771 770 769 768 767 766 765 764 764 765 765 764 764 764 764 763 763 763 763 763 763 763 762 761 761 761 761 760 759 759 758 758 757 757 756 756 755 755 755 754 755 755 755 756 757 758 759 761 762 764 766
786 790 791 793 794 793 789 783 779 782 784 784 784 783 782 782 781 781 781 781 780 782 782 781 781 781 780 779 777 775 774 772 771 770 769 768 767 766 765 765 763 762 762 761 762 763 763 763 763 762 761 761 761 761 762 761 761 760 760 759 759 759 758 758 757 756 756 755 754 754 753 752 752 752 752 753 753 754 755 756 757 759 761 762 763 766
792 798 795 792 792 794 792 787 783 785 785 784 785 784 782 782 782 782 783 783 783 784 783 782 782 781 778 777 775 773 771 770 770 768 766 765 764 762 762 761 759 760 760 760 760 761 762 761 761 761 761 760 760 761 760 759 758 758 757 757 757 757 756 755 755 755 753 753 752 751 750 750 750 751 751 752 753 754 755 756 757 759 760 762 763 765
793 797 795 793 793 793 789 786 787 790 789 786 785 785 783 784 785 785 785 785 785 784 783 781 780 779 777 775 774 772 770 768 767 765 763 762 761 760 759 758 757 758 759 759 759 760 760 760 759 759 759 759 758 758 757 756 756 755 755 754 754 754 754 754 754 753 751 750 749 748 748 748 748 749 750 751 752 754 755 756 757 759 761 764 765 767
794 795 795 797 799 796 790 789 792 795 793 788 786 786 786 787 787 786 786 785 784 783 781 779 778 777 777 775 774 773 770 768 766 764 762 759 758 758 758 757 757 757 757 758 758 758 758 758 757 756 756 756 755 755 754 754 753 753 753 753 753 753 753 752 752 750 749 748 747 746 745 746 746 748 749 750 752 754 755 758 759 760 763 766 767 768
799 800 800 801 801 798 795 793 794 795 793 789 788 788 788 787 786 785 785 784 782 781 780 779 778 777 776 775 774 773 770 768 766 764 761 759 757 757 757 756 756 755 755 755 755 755 754 754 754 754 754 753 753 753 752 752 751 751 752 753 753 753 752 751 750 749 748 747 746 744 744 745 746 747 749 750 752 754 756 759 761 762 764 767 768 768
Wind_Speed
5 5 8 6 2 2 3 5 7 8 10 8 5 5 6 5 8 7 10 7 3 5 9 10 9 11 9 6 6 5 6 8 9 9 8 8 9 9 11 12 15 13 10 11 16 20 18 17 17 16 16 16 15 15 16 15 14 14 13 13 12 12 11 10 9 8 7 6 6 5 4 4 4 4 5 4 4 4 4 4 3 2 1 2 3 3
3 6 9 5 4 7 5 5 6 7 7 7 7 7 7 7 6 2 6 6 3 5 9 10 8 9 10 8 6 5 8 10 10 11 11 10 10 9 11 12 13 12 9 11 14 17 19 18 17 16 15 16 17 16 16 16 15 14 13 13 13 12 12 10 9 8 6 5 5 5 5 5 6 5 5 5 5 5 4 4 4 3 2 2 2 2
6 9 8 2 5 3 2 4 5 7 8 7 7 8 7 7 5 3 5 3 3 4 9 9 8 8 11 11 8 8 9 9 10 11 11 12 11 10 10 9 10 11 12 14 14 16 18 19 19 17 15 16 17 16 16 16 15 15 14 14 13 13 12 11 9 8 7 5 4 5 6 5 6 6 5 6 5 5 5 4 3 3 2 1 1 1
5 4 3 7 3 2 3 5 7 7 8 8 8 8 7 7 7 2 5 4 4 4 9 9 7 6 9 10 9 9 9 8 9 10 10 11 11 10 10 8 9 12 12 12 12 14 17 19 20 18 16 16 16 17 17 17 16 16 15 14 14 14 13 12 10 8 7 7 5 6 7 6 7 8 7 7 6 5 5 4 3 3 2 2 2 1
4 5 7 5 2 5 7 7 8 8 7 9 9 9 8 6 7 6 2 3 5 6 8 9 7 6 10 13 11 10 10 8 7 9 10 9 9 9 8 7 8 10 11 11 11 12 15 17 19 19 18 17 17 17 18 18 18 16 16 16 15 14 14 13 12 10 9 9 8 8 9 8 8 9 7 7 7 6 5 4 4 3 3 3 3 3
3 6 4 3 3 7 9 8 9 8 7 8 9 9 10 8 6 7 4 5 6 7 8 8 8 7 10 13 11 8 8 9 8 10 12 11 11 9 8 7 7 7 8 10 11 12 14 16 18 20 20 19 18 18 18 19 18 17 17 17 16 15 14 14 14 12 11 10 10 10 10 9 9 8 8 7 7 6 5 5 4 4 3 3 3 4
3 4 2 3 5 8 9 9 9 8 8 7 4 7 9 9 8 9 8 7 7 6 5 6 7 7 6 7 8 7 9 10 9 10 11 11 11 10 10 10 9 8 7 9 12 13 14 15 16 18 20 21 20 18 18 19 19 18 17 17 17 16 15 15 16 14 12 11 11 10 10 9 9 8 8 7 7 6 6 5 5 4 4 3 3 4
4 4 3 5 7 8 8 9 7 7 8 4 2 4 8 10 10 9 10 8 8 7 4 8 9 8 6 5 5 7 8 10 10 9 10 10 10 10 9 9 9 8 7 9 11 12 12 13 15 17 19 20 20 20 19 19 20 20 19 18 18 16 16 16 17 16 13 12 12 11 10 9 9 8 9 8 8 7 7 6 5 5 4 4 4 3
3 5 6 9 8 8 7 6 4 7 8 2 3 5 7 8 9 8 9 8 7 8 6 9 9 7 8 6 4 7 9 10 10 10 9 9 9 8 7 5 4 3 4 5 7 8 9 12 15 17 18 19 20 21 20 19 20 21 20 19 18 17 17 18 18 18 15 13 13 12 11 10 9 9 10 9 8 8 7 7 6 5 5 4 4 3
4 4 5 8 8 8 6 2 1 6 7 3 3 7 8 8 8 8 8 7 7 7 8 9 8 6 7 5 5 7 9 10 8 8 7 8 7 5 4 3 3 2 2 3 4 4 6 9 12 15 17 19 20 21 21 19 20 21 21 20 20 18 17 19 19 19 17 14 14 13 12 12 11 11 11 10 9 8 8 7 6 5 5 5 4 4
5 3 3 6 8 9 5 2 3 5 6 5 6 8 8 7 7 7 7 7 7 8 10 11 10 8 6 6 5 4 3 5 4 7 6 6 6 4 2 2 3 2 1 2 2 2 3 6 9 12 16 18 20 21 21 21 21 22 22 21 21 19 18 19 20 20 18 16 14 13 13 13 12 12 12 11 10 9 8 8 7 6 6 5 5 5
6 7 6 6 7 8 7 6 7 6 7 7 7 8 7 6 7 6 6 7 7 8 9 9 9 8 7 6 3 4 4 2 2 5 6 5 3 2 1 2 1 1 2 2 2 1 1 2 7 11 14 17 19 20 20 20 21 22 22 22 23 21 19 19 20 20 19 17 15 14 14 14 13 13 13 12 11 10 9 9 8 7 7 6 6 6
6 9 9 7 6 7 8 8 7 8 7 8 8 7 6 6 6 6 6 6 7 7 5 4 5 6 7 6 2 5 6 4 1 1 2 3 0 2 1 1 2 3 3 3 3 3 3 1 4 9 12 15 17 19 19 19 20 21 21 23 23 22 20 19 20 21 19 18 16 15 14 14 14 13 13 12 12 11 10 9 8 8 7 7 7 7
7 9 10 8 6 6 8 7 5 6 6 8 8 6 6 6 6 7 7 6 7 6 2 1 1 5 7 4 3 6 5 5 4 2 3 3 2 1 1 2 3 4 5 5 5 5 4 3 0 4 8 12 15 17 17 17 19 19 20 22 23 22 21 19 20 20 20 18 17 15 14 14 14 14 13 12 12 12 10 10 9 8 8 8 8 8
7 6 7 5 3 5 8 8 6 5 5 7 7 7 7 6 6 7 6 6 6 4 3 3 1 5 5 1 4 7 6 5 5 6 6 4 3 2 2 4 5 6 7 6 6 7 6 5 2 2 5 9 12 14 16 16 17 17 18 20 21 21 21 19 18 19 19 18 16 16 15 14 14 13 13 12 12 12 11 10 10 9 8 7 8 8
9 5 6 5 3 4 8 6 5 7 6 6 7 8 7 6 6 6 6 6 4 5 5 5 4 4 2 4 4 6 7 7 6 7 7 6 5 4 5 5 6 6 7 7 7 6 6 6 4 1 3 6 8 10 13 15 15 15 15 18 20 20 19 18 17 18 18 17 16 16 15 15 14 13 13 13 12 12 12 11 11 10 9 8 8 9
7 4 7 6 5 6 6 5 4 7 5 3 5 7 6 6 6 7 7 5 3 5 7 6 7 6 3 6 8 7 7 7 7 8 8 7 7 6 6 6 7 7 8 8 8 7 7 6 4 3 3 4 6 8 10 12 13 12 12 14 17 17 17 17 16 16 17 17 16 16 16 15 14 14 13 13 12 12 12 12 11 11 11 10 9 9
5 6 3 6 8 5 3 7 8 9 7 6 5 3 5 6 6 5 6 5 5 7 7 6 9 8 6 4 7 9 8 8 8 8 9 8 7 8 7 8 8 8 9 9 9 9 8 7 6 5 4 4 5 7 8 9 10 10 11 12 15 15 15 15 14 14 14 15 15 15 15 15 15 14 13 12 12 12 12 12 12 11 12 12 11 11
3 7 7 8 8 4 4 7 10 10 10 10 8 5 4 6 6 5 5 6 7 8 6 7 9 7 6 4 7 9 9 9 9 8 9 8 8 8 8 9 10 9 9 9 9 9 8 8 8 7 6 6 7 7 8 8 8 8 8 9 11 13 13 12 12 12 12 13 13 12 13 14 14 14 14 13 13 12 12 13 12 12 12 12 13 13
2 6 7 5 5 3 4 6 8 8 10 10 9 8 6 6 6 5 5 5 7 8 7 8 8 6 5 2 6 8 9 10 9 8 8 8 8 8 7 8 9 8 8 9 9 9 9 10 10 9 8 7 8 8 9 8 8 9 9 8 8 9 9 10 9 9 9 9 10 10 10 12 13 14 14 13 13 13 13 13 13 13 12 13 13 14
3 6 6 5 5 5 6 6 7 7 6 7 7 7 7 6 6 6 6 6 7 8 7 7 8 5 1 2 2 4 7 9 8 7 7 8 9 8 8 9 8 9 8 8 9 9 10 11 11 10 9 8 9 9 9 8 8 9 10 8 7 7 7 7 7 7 7 7 7 8 9 11 12 13 13 13 13 14 14 13 13 13 13 13 13 14
4 5 6 7 6 7 7 3 4 7 6 6 6 5 5 6 6 7 8 7 7 8 7 7 8 4 3 2 2 4 4 8 8 8 8 8 9 9 9 9 8 9 8 8 9 9 9 11 12 12 11 10 10 10 10 9 8 9 11 10 8 7 6 5 5 7 7 7 7 8 9 10 11 12 12 13 14 14 14 14 13 12 13 14 14 15
2 4 6 8 8 10 10 3 1 5 8 10 9 8 7 7 7 7 7 6 6 8 8 8 8 3 2 1 1 1 2 5 6 8 9 8 8 9 9 10 9 8 8 8 9 8 9 11 12 13 13 13 12 12 12 11 10 9 10 10 8 6 6 5 4 5 6 6 6 6 8 9 10 13 14 14 14 15 15 16 15 13 13 14 14 15
2 3 7 8 8 11 14 9 7 5 7 10 10 9 9 10 10 9 9 7 7 8 8 7 8 2 2 0 2 3 3 4 5 7 9 8 8 8 9 10 9 8 8 8 8 7 8 9 10 11 12 13 13 13 13 13 13 13 12 11 9 7 5 4 4 5 5 5 6 7 8 8 10 15 16 14 14 14 15 17 17 16 15 15 15 16
1 5 6 7 8 7 10 11 9 7 6 7 8 11 11 11 11 10 9 7 8 11 11 9 9 3 3 2 2 4 5 6 7 8 9 9 8 8 9 8 8 8 8 8 8 7 7 8 8 9 10 11 12 13 13 13 13 13 13 12 11 10 7 5 3 2 2 3 5 7 8 9 11 13 14 14 14 14 14 15 16 17 17 18 19 19
3 6 5 6 8 7 7 7 5 4 5 5 8 11 10 8 10 9 8 8 9 11 12 11 9 4 3 4 4 4 7 8 8 8 9 9 9 9 8 7 7 7 7 7 8 7 7 7 7 8 9 9 10 11 11 12 12 12 12 10 10 10 8 7 7 6 4 2 1 3 5 9 12 12 13 13 14 14 16 19 20 19 19 19 19 19
5 6 8 10 10 10 10 10 9 8 8 8 10 11 9 8 10 9 7 9 9 10 11 11 12 9 6 6 5 5 6 7 7 8 8 8 8 8 7 7 6 6 6 6 7 7 7 7 7 8 9 8 9 9 9 10 10 10 10 9 9 9 8 7 7 6 6 5 3 2 1 5 8 9 9 10 12 14 18 20 20 20 19 19 20 20
5 7 10 13 14 14 15 16 15 14 14 14 13 14 15 14 13 11 9 11 11 10 11 11 12 12 11 8 6 5 6 7 7 7 7 6 6 6 5 6 5 5 5 5 6 7 7 7 7 8 8 8 8 8 8 8 9 8 8 8 8 8 8 7 6 6 5 4 3 2 1 2 3 4 4 6 10 14 16 16 16 18 19 18 18 19
6 8 10 13 15 16 17 17 16 16 15 16 16 16 17 18 17 15 15 15 13 11 12 13 15 14 12 11 9 5 5 7 8 7 7 7 6 6 6 5 5 5 6 6 6 7 7 7 7 7 7 7 7 7 6 7 8 7 7 7 7 6 6 6 5 5 4 3 3 3 4 4 5 5 4 5 7 9 11 12 14 17 18 18 18 18
5 6 9 12 14 15 17 16 16 16 16 17 18 18 18 18 19 18 18 18 17 17 18 17 19 18 14 12 12 9 6 6 7 8 8 9 9 9 8 7 6 6 6 6 6 6 7 7 7 7 7 6 5 6 6 6 6 6 6 6 5 5 5 4 4 4 3 3 3 4 5 6 6 7 7 7 8 8 9 9 10 12 13 15 17 18
3 4 7 9 10 13 15 16 16 17 18 18 19 19 19 18 19 18 18 17 16 17 19 18 17 15 11 10 13 13 10 9 9 10 10 10 10 10 10 9 8 7 7 6 6 6 6 7 6 6 6 6 5 5 5 4 4 4 4 4 4 4 5 4 4 4 4 4 4 5 6 7 7 7 8 8 9 10 10 10 10 9 10 11 13 15
3 5 8 8 10 11 12 15 17 15 16 19 19 19 19 18 17 16 15 15 14 15 16 16 14 10 9 11 13 15 15 15 13 13 12 11 11 12 11 11 9 8 7 7 5 5 6 6 6 5 5 4 4 4 4 4 2 3 3 3 3 3 3 3 3 4 4 5 6 6 6 7 7 8 9 9 9 10 10 11 11 11 11 11 12 14
6 6 7 8 9 10 12 15 13 9 10 12 12 13 16 18 18 17 16 17 17 15 13 13 12 10 11 12 12 13 14 14 13 12 11 10 11 11 11 11 9 8 7 7 5 4 4 4 5 5 4 3 2 3 4 3 2 2 2 2 2 2 3 4 4 5 5 6 7 7 7 7 8 9 9 9 9 10 10 11 12 12 13 13 14 14
8 8 8 8 8 10 12 13 10 8 9 8 5 5 10 13 15 16 16 16 16 15 13 13 13 12 12 11 11 13 14 13 11 9 8 8 7 7 10 10 7 6 6 5 4 3 2 2 4 4 3 2 2 3 3 2 1 1 2 3 3 4 5 6 6 6 7 8 8 8 8 8 8 9 9 9 10 10 11 11 12 13 13 14 14 15
8 8 8 7 8 10 11 10 10 11 10 6 4 3 4 7 9 11 12 13 13 12 12 13 13 12 12 11 11 13 14 13 11 9 9 10 9 9 10 8 6 7 7 5 4 3 2 0 1 2 2 1 2 2 2 2 2 3 4 4 5 5 6 7 7 7 8 8 9 9 9 9 9 9 10 10 10 11 12 12 13 13 13 14 14 15
9 8 8 8 8 9 9 9 11 10 7 6 6 3 2 5 8 9 11 12 10 8 9 10 10 9 9 9 8 9 11 11 9 7 7 8 8 9 9 8 7 7 5 3 4 4 4 3 1 1 1 2 3 3 3 4 4 5 6 6 6 7 7 8 8 8 8 9 9 10 9 9 10 10 10 11 11 12 12 13 13 13 13 14 15 15
10 9 8 8 8 8 9 10 10 10 10 10 7 2 1 3 5 6 9 9 6 4 6 8 9 9 8 8 7 7 8 9 8 4 3 5 5 4 4 4 5 4 4 5 5 6 6 5 2 1 1 3 4 5 5 5 5 6 7 7 8 8 9 9 10 10 10 10 10 10 9 9 10 11 11 11 12 13 13 13 13 13 13 14 15 15
10 9 9 8 8 7 9 9 9 10 10 6 1 5 5 4 4 4 7 7 3 1 4 8 9 8 7 7 8 7 6 7 6 2 1 1 2 4 4 2 4 4 6 7 7 8 8 6 3 3 4 4 5 6 6 6 6 7 9 9 9 10 10 11 11 12 12 12 12 11 11 11 11 12 12 12 12 13 13 13 13 13 13 13 14 15
11 9 9 9 8 8 9 9 8 9 6 1 4 4 4 4 4 3 7 5 1 3 6 9 8 7 6 6 7 7 7 6 4 2 5 4 1 2 3 5 5 5 6 7 7 8 8 6 6 7 7 6 7 6 6 7 8 9 10 10 10 11 12 12 13 13 14 14 14 14 13 13 13 13 13 13 13 13 13 13 13 13 13 13 14 15
10 8 8 9 9 9 10 8 8 7 1 4 3 2 3 4 3 4 7 2 4 5 6 8 8 7 6 7 7 7 7 5 1 2 5 7 5 4 4 5 6 7 8 9 8 7 7 8 9 9 8 8 8 8 8 9 10 10 10 11 11 12 12 13 14 15 16 16 16 16 15 15 14 14 13 14 14 13 13 13 13 13 13 14 14 14
7 7 7 9 9 10 10 9 8 5 2 5 3 2 3 3 4 6 6 2 3 4 5 6 7 8 8 8 7 6 7 6 4 1 3 6 8 8 8 8 9 9 10 11 9 8 9 11 11 10 10 10 10 10 9 10 10 11 11 11 12 13 13 14 15 16 17 17 17 17 17 17 16 15 15 14 14 14 13 13 13 13 14 14 15 14
6 6 6 8 8 9 8 8 8 5 2 6 6 3 2 4 5 3 4 3 4 7 8 8 9 9 9 9 9 8 9 9 9 8 8 9 9 10 11 11 11 11 12 12 12 11 11 12 11 11 12 12 11 11 11 11 12 12 13 13 14 14 15 15 16 17 18 18 19 19 18 18 17 16 15 14 14 14 14 14 14 14 14 14 14 11
5 6 7 7 7 7 8 8 8 5 2 6 7 4 2 3 4 5 6 7 8 9 9 10 10 9 10 10 11 11 11 11 12 11 11 12 12 12 13 14 13 13 13 13 14 14 14 14 13 13 13 12 12 12 12 12 13 14 14 15 16 16 16 16 17 18 19 19 19 19 19 18 18 17 16 15 15 16 16 15 15 15 14 13 11 9
4 5 6 5 4 5 7 6 3 1 0 4 6 5 4 5 7 8 8 9 9 10 10 9 10 10 11 11 12 13 13 13 13 13 13 13 14 14 14 15 16 15 14 14 15 16 16 16 16 15 15 14 14 13 13 14 15 16 17 17 17 17 18 18 18 19 19 18 18 18 18 19 19 18 17 17 18 18 17 17 17 15 13 10 8 9
2 2 5 4 4 5 7 6 5 4 6 7 6 6 8 9 9 10 11 10 10 10 9 9 11 12 12 13 14 14 14 14 15 14 14 15 15 15 16 17 18 18 17 17 18 17 17 18 17 16 16 16 15 15 15 15 16 18 18 19 18 18 19 19 19 19 19 19 19 19 19 20 19 20 20 20 19 18 17 18 18 14 10 9 10 11
3 4 5 5 6 9 10 10 10 10 9 9 8 8 10 11 11 12 12 12 11 11 10 11 12 13 14 15 15 14 15 16 16 16 16 16 16 17 18 19 20 21 21 20 20 19 19 19 18 18 17 17 17 16 16 16 17 19 19 19 19 19 19 20 21 21 21 21 22 21 21 21 21 21 22 21 19 18 16 14 13 11 10 12 12 14
4 6 5 6 7 8 8 8 9 10 10 10 12 12 12 13 12 11 11 11 11 12 12 13 14 15 16 16 16 16 17 18 18 18 17 16 17 18 18 19 21 23 23 22 20 19 19 19 18 18 18 18 17 16 17 18 19 19 20 20 19 19 20 21 22 23 23 24 24 23 23 23 22 21 21 20 18 15 10 7 7 10 13 14 16 18
3 4 4 8 8 8 9 10 11 12 13 12 11 11 11 12 13 13 12 12 13 14 15 15 16 16 16 16 18 18 19 18 19 18 17 16 16 16 17 20 22 22 22 22 21 20 19 19 19 18 18 18 18 18 18 19 19 19 19 19 19 18 19 21 22 24 25 25 25 24 24 24 22 19 18 15 10 7 6 6 9 12 13 15 17 19
5 4 5 8 8 8 10 10 9 10 11 12 11 12 12 13 14 15 16 16 16 17 17 18 19 18 17 18 19 19 20 20 19 20 19 17 16 16 17 20 22 22 21 22 21 19 19 20 19 19 19 19 18 18 18 18 19 18 17 16 16 16 18 20 22 24 25 25 25 26 25 22 17 13 11 8 8 9 9 10 13 16 16 16 17 18
7 6 6 6 7 7 8 9 9 10 10 11 13 15 16 15 16 17 17 17 17 18 17 18 19 18 18 19 19 18 19 19 20 21 20 17 17 18 20 21 21 21 21 21 20 20 20 20 20 19 19 18 17 17 17 17 17 15 12 12 14 15 17 20 21 22 23 22 21 21 20 15 9 9 12 14 16 17 17 16 18 20 20 17 16 17
5 6 6 6 7 8 10 12 12 11 11 12 15 16 16 15 16 17 17 16 16 16 16 16 17 16 16 17 19 18 17 17 20 21 19 18 20 22 23 22 21 21 20 20 20 20 20 20 19 18 18 18 17 17 16 16 14 10 8 9 11 13 14 16 17 16 15 11 9 9 10 11 12 15 17 19 21 23 24 24 22 22 21 18 17 18
Wind_Direction
237 238 231 235 234 37 17 353 349 341 332 322 301 282 268 239 224 197 118 118 244 252 243 228 218 249 248 218 218 197 203 225 220 212 211 216 212 205 209 191 172 173 183 185 172 163 163 163 161 160 161 163 163 165 164 161 162 159 157 157 156 158 159 160 164 165 167 164 157 155 149 142 138 126 119 115 96 90 82 74 72 63 38 348 344 326
235 249 241 247 37 35 4 345 332 311 304 287 272 263 253 247 242 221 104 119 190 250 251 240 227 252 257 232 219 213 219 225 221 217 211 215 220 213 214 201 173 160 170 189 182 169 166 164 165 166 166 169 169 171 171 168 166 163 161 160 159 160 161 167 168 166 169 165 156 155 150 146 138 127 127 124 102 97 93 78 68 57 46 11 340 335
217 241 231 138 47 16 327 304 282 274 275 264 256 259 251 243 239 110 102 166 191 239 256 246 229 241 251 240 211 207 230 230 220 223 217 214 219 214 214 206 180 172 177 186 185 178 173 167 169 172 172 176 176 175 176 174 172 168 167 164 161 163 163 166 167 165 167 158 144 142 141 138 126 112 106 110 109 108 102 90 81 69 61 36 7 14
227 236 160 108 79 265 238 241 248 251 250 249 247 253 250 243 252 199 150 209 226 252 277 275 256 248 255 245 214 207 228 231 217 221 221 216 217 215 214 207 194 187 176 176 184 184 181 173 173 177 177 179 180 179 179 179 178 174 173 169 165 165 164 164 166 163 157 147 137 131 128 119 117 119 117 118 118 114 108 99 85 78 74 54 55 65
256 81 99 115 144 238 241 223 231 249 239 233 238 255 261 246 265 277 170 193 243 236 255 272 264 246 244 238 223 209 213 220 210 209 213 211 213 217 217 215 215 198 171 177 198 197 191 182 178 181 181 181 183 182 181 181 181 178 175 171 167 166 165 163 164 161 153 149 144 139 134 123 122 132 140 138 131 126 120 106 94 94 90 73 67 66
245 88 118 178 202 230 245 234 222 240 253 237 222 239 271 271 264 264 215 196 245 234 209 230 254 250 239 235 228 203 195 210 206 203 206 202 202 207 209 216 232 221 181 184 205 208 203 192 186 185 183 184 187 185 183 181 181 179 175 173 169 166 165 163 163 162 158 158 158 156 153 149 146 150 153 148 140 136 127 113 109 106 96 85 78 71
121 109 189 204 230 232 237 248 229 223 254 262 211 212 250 263 252 249 243 226 248 260 181 194 255 267 244 231 222 199 196 206 202 203 207 199 196 202 204 202 208 213 198 201 211 212 209 200 194 191 187 188 188 185 183 181 181 179 176 174 170 167 166 163 164 164 163 166 169 170 166 162 161 156 148 143 140 134 125 122 120 113 106 99 88 79
134 148 196 202 232 238 231 246 227 212 249 282 26 229 234 249 246 241 249 244 258 274 193 192 239 264 258 235 201 194 207 209 195 198 211 205 198 201 206 203 199 197 190 203 213 211 211 206 203 200 195 192 189 185 184 181 180 179 177 176 172 169 166 164 165 167 169 171 173 177 171 165 165 153 144 142 141 136 130 132 131 126 124 115 103 93
189 191 202 212 227 237 240 255 208 208 243 292 11 271 252 258 254 245 250 249 259 270 247 225 231 251 260 241 181 187 218 228 204 190 207 213 204 199 198 200 195 179 180 206 215 213 215 213 209 205 201 198 192 187 185 182 179 179 178 176 174 172 167 166 168 169 174 176 176 179 173 168 165 151 149 152 147 144 140 140 140 134 133 126 115 106
205 213 220 222 230 238 242 305 194 217 242 291 318 267 253 255 248 244 251 250 253 251 254 250 234 243 261 244 207 199 222 243 211 179 203 214 207 195 171 178 201 195 202 217 218 213 220 224 219 209 202 199 195 190 186 181 179 178 179 177 176 174 169 168 170 170 175 178 178 181 176 172 166 156 159 160 152 153 153 150 149 145 142 137 129 121
166 172 252 240 244 262 271 287 256 249 263 279 278 254 242 245 241 239 245 250 256 245 243 246 236 240 256 248 233 193 215 271 195 166 197 208 196 173 137 202 226 224 248 250 234 208 211 228 230 218 206 198 195 193 187 181 180 179 179 178 177 176 173 171 171 172 176 178 181 183 180 175 169 162 164 163 161 166 166 162 161 160 154 146 142 138
191 185 211 214 232 266 275 252 235 236 251 254 252 246 238 235 232 235 240 235 245 253 249 245 233 231 245 257 246 133 142 255 172 170 189 195 184 106 65 279 291 347 320 308 322 42 80 231 229 222 210 198 194 193 190 184 181 180 180 179 177 176 175 173 173 175 176 179 183 184 181 179 173 169 169 168 169 173 173 173 174 170 163 158 156 156
231 220 209 187 199 241 251 241 217 206 226 240 238 241 243 238 229 232 236 228 237 252 257 251 230 224 246 262 220 149 154 153 144 210 169 168 115 43 330 297 14 360 343 353 14 42 41 332 228 218 209 199 193 195 195 188 182 181 181 179 178 178 177 175 175 177 178 180 183 184 183 182 178 176 177 176 175 177 179 180 181 179 174 170 169 171
231 222 207 192 181 210 239 246 227 204 217 236 238 236 239 241 241 242 240 236 241 239 212 63 282 244 257 268 150 140 129 115 130 136 109 124 116 72 304 6 37 21 19 22 26 39 38 21 259 205 202 199 199 202 204 196 185 182 182 182 181 179 177 175 175 178 181 182 183 185 185 185 184 182 183 184 182 183 186 185 185 189 187 180 179 181
256 234 198 205 156 173 232 251 269 276 249 241 245 241 242 250 253 256 263 263 268 265 205 156 203 254 252 254 103 119 124 126 136 135 131 137 131 110 57 42 42 37 35 36 39 42 42 39 35 183 198 204 205 208 211 205 192 183 183 184 183 181 178 177 176 179 183 183 184 186 187 189 190 189 189 191 190 187 191 190 187 191 195 190 186 186
272 268 156 171 156 184 237 254 277 280 260 244 249 240 238 253 258 266 280 282 299 302 258 204 219 255 181 144 137 124 135 145 143 142 143 136 119 103 87 70 59 52 46 48 53 53 57 59 53 108 185 200 204 207 209 207 199 189 183 184 184 183 180 178 178 180 184 184 186 189 192 194 196 196 196 197 197 193 193 194 190 192 197 196 191 189
266 260 131 157 207 215 252 282 262 258 267 265 251 248 253 260 263 269 269 257 235 260 260 237 239 249 208 178 172 164 162 154 157 160 147 129 117 106 91 77 67 61 56 56 60 60 63 68 73 97 136 170 185 195 198 199 197 189 181 180 182 183 181 182 181 181 183 185 188 191 194 198 201 203 204 203 203 198 194 197 196 194 195 196 196 191
268 268 218 222 228 197 234 281 263 249 266 275 258 273 287 269 266 272 267 256 246 256 255 244 250 249 245 219 169 182 191 170 175 169 144 133 123 106 91 81 71 64 62 61 64 64 61 61 68 87 108 128 149 164 172 179 183 181 179 177 179 181 181 182 182 183 186 187 190 194 197 201 203 206 210 211 209 205 201 201 201 200 198 197 198 194
253 272 259 238 235 194 189 251 259 240 235 252 272 299 289 261 258 252 257 264 262 266 265 257 261 256 252 226 164 195 206 176 177 173 153 149 129 108 96 88 77 69 66 63 64 64 64 64 65 72 82 99 118 130 139 147 150 155 163 166 172 180 182 181 181 185 189 190 193 200 202 204 207 209 213 216 216 212 210 210 210 209 206 201 200 197
248 268 267 241 234 236 217 231 252 241 218 228 255 264 253 259 271 262 257 264 264 268 272 271 268 256 262 239 157 192 208 179 175 177 164 146 123 110 102 93 83 76 71 67 67 65 67 72 72 74 76 84 97 104 112 118 122 130 135 137 149 165 176 181 181 182 187 190 195 205 212 214 214 215 216 219 223 222 220 221 220 219 216 209 206 203
255 259 270 259 236 238 243 241 258 267 240 227 240 245 242 245 259 266 261 256 263 269 272 274 269 255 297 29 106 212 203 176 171 172 154 133 122 115 103 97 90 85 80 75 76 73 72 75 77 82 87 91 94 94 96 100 102 106 106 110 125 140 156 174 180 179 188 198 201 211 223 229 228 227 225 225 229 231 229 228 228 227 226 219 215 213
261 258 263 264 253 245 250 264 305 304 293 278 271 267 267 258 255 263 262 256 262 269 273 276 274 281 40 36 287 259 195 166 170 165 146 132 127 118 108 104 99 95 92 86 86 83 81 82 79 80 82 85 89 90 92 98 100 101 103 104 108 116 130 154 176 178 187 202 210 214 219 229 238 240 238 235 235 237 236 236 235 232 231 227 223 221
7 287 269 265 263 267 272 270 272 291 292 284 278 277 279 275 269 268 268 275 280 276 278 278 273 290 42 2 264 241 156 153 163 155 143 137 129 124 118 112 105 102 99 94 93 91 89 91 91 90 87 84 83 82 85 87 87 92 102 107 107 114 129 151 176 175 181 199 218 227 216 214 229 237 239 238 237 238 240 241 241 236 233 231 229 226
97 259 260 266 264 266 268 247 211 226 266 268 264 263 263 262 264 269 277 289 288 276 274 275 271 254 117 162 108 115 143 152 157 160 154 146 139 135 129 119 115 113 107 103 99 95 95 94 94 94 93 91 87 82 81 81 78 76 78 83 88 94 113 149 180 186 189 197 215 232 225 216 225 231 234 236 232 233 238 241 242 240 237 233 230 229
172 248 245 262 265 254 252 241 222 216 237 256 256 251 255 266 274 275 280 283 272 267 266 266 270 260 135 172 157 153 178 177 176 177 164 155 154 148 136 128 126 122 117 114 107 100 96 91 87 86 86 88 88 85 82 82 81 79 77 78 83 84 84 86 101 132 173 206 217 227 228 229 230 226 226 231 228 224 227 233 233 232 234 234 230 228
267 270 262 264 264 257 252 252 251 246 249 268 269 254 249 269 281 279 278 269 258 265 267 262 270 268 148 176 209 213 216 202 187 181 170 166 166 155 143 138 136 133 131 124 115 108 99 91 86 81 79 79 82 84 84 83 81 81 79 79 80 81 79 72 67 70 67 59 217 224 237 245 244 235 228 231 232 226 223 228 231 228 230 235 234 232
266 265 263 262 263 268 275 284 300 304 284 278 280 271 255 249 259 265 269 267 270 277 269 261 271 275 246 219 212 218 230 219 197 191 193 184 170 159 150 147 147 145 141 135 130 124 112 102 93 87 83 79 79 79 80 80 77 75 74 72 69 66 63 58 52 55 59 52 53 72 251 258 256 250 244 244 246 242 233 232 235 235 232 233 235 234
263 257 254 260 263 268 276 283 289 290 283 279 279 274 268 264 263 260 256 264 279 284 271 268 277 279 276 266 237 213 228 238 227 219 226 213 184 174 164 157 164 168 164 153 139 129 120 110 102 95 92 87 84 81 80 79 76 71 67 62 60 57 52 46 38 36 37 28 23 22 338 295 280 276 277 267 256 252 247 242 244 247 244 241 239 236
261 259 257 261 262 264 268 272 276 277 278 277 272 268 270 272 270 265 259 260 266 267 268 282 291 287 288 293 283 267 257 254 247 237 236 229 212 210 209 200 200 198 193 177 148 131 122 114 106 99 91 86 86 85 81 81 80 78 72 61 56 52 47 41 31 24 16 2 348 329 317 311 306 301 292 280 267 260 258 253 247 246 247 246 245 245
263 265 265 268 270 270 270 271 273 274 274 272 266 263 263 265 264 264 264 263 263 264 268 276 282 280 281 286 287 295 307 289 268 252 241 231 220 218 223 227 225 217 206 184 158 140 127 119 114 108 97 85 81 79 71 65 65 70 70 60 51 41 33 27 18 7 348 333 320 310 304 297 294 291 282 280 279 276 274 267 254 245 241 239 239 242
226 265 273 277 277 274 275 277 274 270 271 271 267 263 260 261 262 261 262 263 262 265 269 272 274 277 282 284 281 278 277 272 263 251 244 236 227 228 233 235 232 227 216 192 167 151 138 128 118 112 108 100 94 90 82 69 57 62 61 49 39 25 12 1 352 339 320 310 302 295 291 287 283 280 278 277 275 274 274 272 268 258 247 241 237 236
214 268 279 276 269 268 273 273 272 277 279 271 265 264 261 261 264 264 264 266 265 268 273 274 272 273 275 274 272 270 266 261 253 246 244 241 239 242 243 238 233 227 217 206 193 168 147 135 122 111 105 104 107 104 92 77 59 66 57 39 33 17 353 336 318 302 295 292 290 289 289 286 284 281 279 277 273 272 273 271 269 261 250 244 241 239
244 264 273 271 268 269 271 271 278 304 298 272 264 268 265 261 261 262 261 263 265 265 265 266 267 274 282 281 280 282 277 271 265 260 257 256 253 250 244 240 237 223 210 214 216 191 156 134 120 109 94 86 81 61 49 34 29 47 27 358 359 343 323 312 299 292 291 287 287 290 288 284 281 279 277 276 273 273 272 269 268 264 257 251 245 242
261 266 269 271 270 270 274 278 282 278 265 264 278 284 277 273 266 263 264 266 266 265 266 272 277 284 291 289 285 282 278 274 280 286 283 277 267 251 246 250 245 210 192 203 223 218 170 116 104 98 90 82 56 25 1 343 359 357 327 325 334 328 319 312 304 299 296 293 293 293 288 284 281 277 275 275 273 272 269 266 265 262 259 257 252 247
260 263 264 266 267 270 276 275 264 256 252 262 287 296 308 306 288 279 279 275 271 273 279 286 287 287 291 293 293 291 286 282 284 287 279 269 260 252 252 249 216 184 183 193 219 244 261 205 114 99 90 49 6 324 296 301 326 319 312 315 315 309 303 300 297 294 291 292 293 291 286 283 281 280 280 278 273 270 266 264 263 261 259 257 255 251
255 258 260 260 261 265 265 252 250 263 264 245 243 241 235 265 274 280 277 271 270 279 285 288 290 287 286 292 298 298 298 291 277 274 287 284 266 250 244 228 196 183 191 213 233 253 267 268 263 91 40 327 313 299 300 313 317 309 304 302 298 294 293 292 290 288 286 285 287 286 282 279 278 277 277 275 272 269 265 263 261 260 259 258 256 255
247 251 253 255 256 257 259 256 258 271 267 248 244 275 330 280 295 301 288 281 279 280 289 290 287 283 280 282 286 290 297 291 271 257 344 350 337 313 269 208 173 185 229 241 244 252 256 260 268 295 302 298 295 297 301 302 300 296 291 289 289 289 291 291 290 290 289 288 287 285 282 278 277 275 273 271 269 266 264 264 262 259 259 259 258 256
241 244 248 252 253 253 258 261 259 262 264 257 313 41 38 27 11 324 289 286 271 255 310 299 283 286 296 296 298 301 296 285 270 246 64 22 31 17 351 236 185 210 242 247 251 253 252 257 282 298 293 286 281 283 287 287 288 286 283 281 282 286 289 290 291 292 293 293 292 290 286 282 279 278 275 272 271 269 267 265 263 261 259 258 259 259
245 241 245 248 250 249 252 257 257 258 269 19 70 65 54 44 26 315 272 273 36 43 355 329 303 301 306 296 302 305 289 279 285 353 2 350 27 44 333 276 255 258 262 262 264 264 263 274 290 291 285 278 278 281 282 283 283 280 279 279 280 283 286 288 289 291 293 294 293 291 288 285 282 279 277 274 272 271 270 268 266 264 261 260 262 260
245 238 240 244 246 247 248 252 257 257 298 49 50 40 33 26 7 291 264 277 56 36 2 349 338 332 316 298 300 295 281 288 341 29 345 328 307 296 291 273 270 273 267 265 272 282 286 286 285 283 278 276 278 280 277 276 277 276 276 277 277 278 281 283 286 290 292 292 291 288 286 283 279 276 274 274 272 269 268 267 265 264 263 263 264 261
241 234 239 246 247 246 246 251 257 255 58 44 6 3 11 331 280 268 272 346 30 330 320 327 321 321 315 302 297 286 285 310 341 314 277 281 280 284 283 275 275 278 275 276 283 292 290 286 285 283 281 280 279 277 275 276 276 276 276 276 274 275 278 281 283 286 288 288 286 284 283 281 278 276 274 273 271 269 268 266 264 264 264 263 262 260
248 241 238 242 247 250 251 257 261 258 37 17 342 330 314 272 261 284 317 324 305 301 308 305 298 301 301 297 298 297 296 302 303 296 289 285 281 280 281 282 283 285 287 289 292 291 287 283 281 278 276 278 278 278 279 279 279 280 280 278 276 277 278 280 282 283 284 284 283 282 282 279 276 274 272 270 269 268 267 267 267 266 265 264 258 248
268 263 246 238 247 256 254 256 262 260 32 10 343 334 306 284 306 335 328 306 299 300 299 297 295 295 292 293 295 297 297 296 295 293 292 291 288 282 278 279 280 282 287 291 291 291 291 288 286 283 282 282 281 280 280 279 279 280 280 278 279 280 280 279 281 281 281 281 281 280 279 277 274 270 267 266 268 268 268 267 266 265 264 259 242 218
269 268 269 268 270 261 252 254 266 245 338 331 328 324 311 305 312 316 308 301 303 302 297 296 297 294 292 291 291 290 289 287 286 286 285 286 290 292 290 287 284 283 285 286 286 288 289 287 285 285 285 285 285 284 282 280 280 281 281 281 282 282 280 278 279 279 278 278 278 278 278 277 274 268 266 267 269 269 267 263 261 261 257 242 212 190
253 282 289 293 293 279 272 281 295 286 286 301 310 307 300 296 295 297 296 292 293 295 295 296 296 297 296 293 292 292 290 286 284 285 283 281 281 284 285 284 283 282 283 285 285 284 284 283 284 285 284 285 285 283 280 279 280 281 281 282 282 280 278 277 277 277 278 279 279 279 278 277 275 271 269 270 268 266 263 261 259 253 231 201 184 178
342 337 303 289 297 292 281 281 290 293 300 308 304 297 296 293 291 292 290 285 287 291 292 290 292 295 294 290 289 288 286 285 285 283 282 281 278 277 278 279 280 279 279 281 283 284 284 284 285 285 283 282 282 281 281 280 280 281 281 282 281 279 278 278 278 278 280 281 280 278 277 275 275 273 270 267 264 261 261 259 254 235 196 176 175 175
24 10 313 277 285 292 287 287 296 300 301 301 297 295 294 292 294 298 296 295 300 301 299 296 295 293 291 288 286 284 283 284 283 281 280 280 279 278 278 278 279 281 281 281 283 286 287 286 285 286 286 286 286 285 284 282 280 280 281 282 281 280 278 279 279 278 277 277 275 275 275 272 271 269 268 267 265 258 248 230 211 196 182 174 172 172
32 29 306 276 275 280 283 288 295 298 296 295 294 295 296 298 302 305 304 302 301 296 294 293 290 289 287 285 285 285 284 283 282 281 281 280 279 278 276 275 277 279 280 281 281 284 286 286 286 288 287 287 286 284 282 281 280 281 283 282 281 282 280 280 278 276 275 275 274 273 272 269 269 268 264 261 254 229 197 173 172 173 170 168 166 162
293 284 290 294 289 280 279 287 307 315 304 294 292 296 300 304 305 302 300 298 295 292 290 288 286 286 286 285 285 285 283 281 280 280 279 278 277 278 278 279 281 281 281 282 283 283 284 284 284 285 284 284 285 283 280 281 281 282 284 285 287 288 286 283 280 277 276 275 273 271 268 267 267 257 234 201 156 145 142 143 150 148 141 143 149 145
283 281 297 302 289 285 295 309 321 319 301 293 300 305 306 307 304 301 299 296 294 293 293 291 290 290 289 287 286 284 282 283 282 279 278 277 276 277 279 281 282 282 281 282 282 280 279 279 281 283 284 284 285 284 282 283 284 286 292 298 297 291 286 283 281 278 277 276 273 267 261 252 232 194 170 147 134 131 126 127 139 140 133 134 140 138
312 311 315 304 294 299 308 312 312 306 297 300 305 305 306 306 304 301 300 300 301 303 304 302 299 298 294 290 288 285 283 283 283 282 281 278 275 275 275 276 277 279 280 280 280 279 279 280 282 283 284 285 284 283 283 285 288 295 306 309 303 295 289 285 281 278 276 271 259 242 222 195 169 155 146 137 131 127 119 114 119 125 127 133 135 131